www.pogodaiklimat.ru

Погода и климат >> Архив погоды >> Австралия >> Квинсленд >> Аэропорт Вейпа


ПОГОДА в Аэропорту Вейпа

  • Прогноз погоды в Аэропорту Вейпа
  • Монитор погоды в Аэропорту Вейпа

АРХИВ ПОГОДЫ в Аэропорту Вейпа

Время (UTC), дата Ветер
(напр.,м/с)
 
Видим.   Явления Облачность Т
(С)
Тd
(С)
f
(%)
Тe
(С)
Тes
(С)
Комфортность P
(гПа)
Po
(гПа)
Тmin
(С)
Tmax
(С)
R
(мм)
R24
(мм)
S
(см)
20 16.01 В 1 н/о н/о +25.0 +23.8 93 +34 +34 очень
душно
1007.0 1004.9
21 16.01 СВ 2 н/о н/о +25.2 +23.6 91 +34 +34 очень
душно
1007.7 1005.6
23 16.01 В 5 н/о 6/6 300 м
[]
+28.3 +24.3 79 +40 +41 очень
душно
1008.8 1006.7
00 17.01 В 5 н/о н/о +29.6 +24.5 74 +42 +42 опасность
перегрева
1008.7 1006.6
02 17.01 СВ 5 н/о 4/4 600 м
[]
+30.2 +24.1 70 +42 +49 опасность
перегрева
1007.3 1005.2 +24.8
03 17.01 В 4 н/о н/о +30.8 +26.1 76 +46 +46 опасность
перегрева
1006.1 1004.0
05 17.01 В 7 н/о в посл. час дождь со снегом 3/3 1000 м
[]
+31.6 +24.5 66 +44 +47 опасность
перегрева
1004.6 1002.5
06 17.01 ЮВ 3 н/о н/о +27.2 +24.7 86 +39 +39 очень
душно
1004.7 1002.6
08 17.01 В 2 н/о 1/0
[]
+28.3 +25.3 84 +41 +42 опасность
перегрева
1004.6 1002.5
09 17.01 В 3 н/о н/о +28.1 +23.5 76 +38 +38 очень
душно
1005.8 1003.7
11 17.01 В 3 н/о 8/8 600 м
[]
+27.2 +24.8 87 +39 +39 очень
душно
1007.3 1005.2
12 17.01 В 3 н/о н/о +26.8 +24.5 87 +38 +38 очень
душно
1007.9 1005.8
14 17.01 СВ 3 н/о н/о +26.2 +23.9 87 +36 +36 очень
душно
1007.6 1005.5 +32.5
15 17.01 СВ 4 н/о н/о +25.8 +23.7 88 +35 +35 очень
душно
1007.0 1004.9
17 17.01 СВ 3 н/о 9/0
[]
+25.9 +23.8 88 +35 +35 очень
душно
1006.0 1003.9
18 17.01 В 2 н/о н/о +25.6 +23.3 87 +34 +34 очень
душно
1005.8 1003.7
20 17.01 ЮВ 2 н/о 9/0 2000 м
[]
+24.8 +23.0 90 +33 +33 очень
душно
1006.9 1004.8
21 17.01 В 3 н/о н/о +25.0 +23.4 91 +34 +34 очень
душно
1007.8 1005.7
23 17.01 В 6 н/о 1/0 2000 м
[]
+29.2 +24.5 76 +41 +45 опасность
перегрева
1008.2 1006.1
00 18.01 В 6 н/о н/о +30.4 +23.8 68 +42 +42 опасность
перегрева
1008.6 1006.5
02 18.01 СВ 4 н/о 8/8 600 м
[]
+31.5 +24.9 68 +45 +48 опасность
перегрева
1007.9 1005.8 +24.7
03 18.01 В 5 н/о н/о +32.5 +23.7 60 +44 +44 опасность
перегрева
1007.0 1004.9
05 18.01 СВ 4 н/о 10/10 1000 м
[]
+33.0 +23.3 57 +44 +44 опасность
перегрева
1005.7 1003.6
06 18.01 ЮВ 3 н/о н/о +32.2 +24.5 64 +45 +45 опасность
перегрева
1005.5 1003.4
08 18.01 ЮЗ 2 н/о в посл. час дождь со снегом {туман} 10/10 300 м
[]
+27.3 +24.9 87 +39 +39 очень
душно
1006.5 1004.4
09 18.01 СЗ 1 н/о н/о +27.7 +24.9 85 +40 +40 очень
душно
1006.9 1004.8
11 18.01 Ю 1 н/о {туман} н/о +26.8 +25.2 91 +39 +39 очень
душно
1008.1 1006.0
12 18.01 ЮВ 1 н/о н/о +26.6 +25.0 91 +38 +38 очень
душно
1009.0 1006.9
14 18.01 штиль 0 н/о н/о +26.4 +25.0 92 +38 +38 очень
душно
1009.0 1006.9 +33.5
15 18.01 штиль 0 н/о н/о +26.3 +24.9 92 +38 +38 очень
душно
1008.4 1006.3
17 18.01 штиль 0 н/о 10/0
[]
+25.8 +24.2 91 +36 +36 очень
душно
1007.2 1005.1
18 18.01 ЮВ 2 н/о н/о +25.7 +24.1 91 +36 +36 очень
душно
1007.0 1004.9
20 18.01 ЮВ 3 н/о 1/0
[]
+25.6 +24.0 91 +35 +35 очень
душно
1007.8 1005.7
21 18.01 В 3 н/о н/о +26.2 +24.2 89 +36 +36 очень
душно
1008.5 1006.4
23 18.01 В 6 н/о 3/3 300 м
[]
+29.3 +24.4 75 +41 +44 опасность
перегрева
1009.2 1007.1
00 19.01 СВ 5 н/о н/о +30.7 +24.1 68 +43 +43 опасность
перегрева
1008.7 1006.6
02 19.01 В 6 н/о {туман} 3/3 1000 м
[]
+33.0 +23.3 57 +44 +50 опасность
перегрева
1008.0 1005.9 +25.6
03 19.01 СВ 4 н/о н/о +32.8 +23.2 57 +43 +43 опасность
перегрева
1007.0 1004.9
05 19.01 СВ 5 н/о в посл. час дождь со снегом {туман} 10/10 1000 м
[]
+27.8 +24.6 83 +39 +39 очень
душно
1006.3 1004.2
06 19.01 ЮВ 3 н/о н/о +28.7 +25.3 82 +42 +42 опасность
перегрева
1006.1 1004.0
08 19.01 СЗ 2 н/о 10/10 600 м
[]
+29.1 +24.9 78 +42 +42 опасность
перегрева
1006.9 1004.8
09 19.01 В 5 н/о н/о +25.4 +24.0 92 +35 +35 очень
душно
1008.0 1005.9
11 19.01 В 5 7000 м ливневой дождь {туман} 10/10 300 м
[]
+25.5 +23.9 91 +35 +35 очень
душно
1009.8 1007.7
12 19.01 СВ 3 н/о н/о +25.4 +24.0 92 +35 +35 очень
душно
1009.3 1007.2
14 19.01 В 3 н/о в посл. час дождь со снегом {туман} 10/10 1500 м
[]
+25.5 +24.1 92 +35 +35 очень
душно
1009.0 1006.9 +34.0
15 19.01 В 3 н/о н/о +25.2 +23.8 92 +34 +34 очень
душно
1008.4 1006.3
17 19.01 В 2 н/о {туман} 5/0
[]
+25.1 +23.9 93 +34 +34 очень
душно
1007.3 1005.2
18 19.01 СВ 2 н/о н/о +25.0 +23.8 93 +34 +34 очень
душно
1006.9 1004.8
20 19.01 В 2 н/о {туман} 1/0
[]
+24.8 +23.6 93 +34 +34 очень
душно
1007.6 1005.5
21 19.01 В 3 н/о н/о +25.2 +23.8 92 +34 +34 очень
душно
1008.1 1006.0
23 19.01 В 5 н/о {туман} 4/0
[]
+28.2 +24.0 78 +39 +43 очень
душно
1009.2 1007.1
00 20.01 В 6 н/о н/о +30.1 +23.5 68 +41 +41 опасность
перегрева
1009.1 1007.0
02 20.01 В 7 н/о 4/4 1000 м
[]
+31.7 +22.1 57 +41 +45 опасность
перегрева
1008.4 1006.3 +24.8
03 20.01 В 6 н/о н/о +32.5 +23.4 59 +43 +43 опасность
перегрева
1007.8 1005.7
05 20.01 ЮВ 5 н/о {туман} 6/0 2000 м
[]
+31.1 +23.5 64 +42 +47 опасность
перегрева
1006.0 1003.9
06 20.01 В 6 н/о н/о +32.1 +24.4 64 +45 +45 опасность
перегрева
1005.3 1003.2
08 20.01 В 7 н/о {туман} 10/0
[]
+31.2 +21.7 57 +40 +40 очень
душно
1005.8 1003.7
09 20.01 В 5 н/о н/о +30.1 +21.7 61 +38 +38 очень
душно
1006.3 1004.2
11 20.01 В 3 н/о {туман} н/о +27.9 +22.4 72 +37 +37 очень
душно
1007.6 1005.5
12 20.01 В 3 н/о н/о +27.3 +21.8 72 +35 +35 очень
душно
1008.5 1006.4
14 20.01 В 3 н/о н/о +26.4 +22.3 78 +34 +34 очень
душно
1008.0 1005.9 +33.7
15 20.01 СВ 2 н/о н/о +25.8 +22.1 80 +33 +33 очень
душно
1007.3 1005.2
17 20.01 В 1 н/о н/о +25.1 +22.6 86 +33 +33 очень
душно
1006.6 1004.5
18 20.01 ЮВ 2 н/о н/о +24.9 +22.8 88 +33 +33 очень
душно
1006.2 1004.1
20 20.01 ЮВ 2 н/о 10/0
[]
+25.0 +22.9 88 +33 +33 очень
душно
1006.9 1004.8
21 20.01 ЮВ 3 н/о н/о +25.8 +22.9 84 +34 +34 очень
душно
1007.4 1005.3
23 20.01 В 5 н/о 5/5 600 м
[]
+28.9 +23.1 71 +39 +41 очень
душно
1008.2 1006.1
00 21.01 СВ 6 н/о н/о +29.3 +22.5 67 +39 +39 очень
душно
1008.1 1006.0
02 21.01 В 6 н/о 10/10 1000 м
[]
+31.8 +22.5 58 +41 +41 опасность
перегрева
1007.1 1005.0 +24.8
03 21.01 ЮВ 5 н/о н/о +32.5 +22.6 56 +42 +42 опасность
перегрева
1006.3 1004.2
05 21.01 В 8 н/о {туман} 9/9 600 м
[]
+28.9 +22.9 70 +38 +39 очень
душно
1006.2 1004.1
06 21.01 В 5 н/о н/о +25.5 +23.2 87 +34 +34 очень
душно
1006.3 1004.2
08 21.01 В 4 н/о {туман} 10/10 300 м
[]
+27.6 +24.2 82 +39 +39 очень
душно
1006.5 1004.4
09 21.01 В 7 н/о н/о +26.2 +22.9 82 +35 +35 очень
душно
1007.0 1004.9
11 21.01 В 5 н/о {туман} 10/10 200 м
[]
+25.1 +23.5 91 +34 +34 очень
душно
1008.5 1006.4
12 21.01 В 3 н/о н/о +25.4 +23.5 89 +34 +34 очень
душно
1008.9 1006.8
14 21.01 В 3 н/о 10/0
[]
+25.2 +22.7 86 +33 +33 очень
душно
1009.0 1006.9 +33.2
15 21.01 В 3 н/о н/о +25.1 +22.8 87 +33 +33 очень
душно
1008.3 1006.2
17 21.01 СВ 3 н/о 10/0
[]
+24.8 +22.9 89 +33 +33 очень
душно
1006.8 1004.7
18 21.01 В 3 н/о н/о +24.9 +22.8 88 +33 +33 очень
душно
1006.8 1004.7
20 21.01 В 3 н/о 10/0
[]
+25.3 +22.8 86 +33 +33 очень
душно
1007.5 1005.4
21 21.01 В 3 н/о н/о +25.5 +23.0 86 +34 +34 очень
душно
1008.2 1006.1
23 21.01 В 5 н/о 10/10 300 м
[]
+27.0 +23.5 81 +37 +37 очень
душно
1008.5 1006.4
00 22.01 В 7 н/о н/о +28.0 +23.2 75 +38 +38 очень
душно
1008.5 1006.4
02 22.01 В 6 н/о в посл. час дождь {туман} 10/10 600 м
[]
+30.9 +24.5 69 +44 +44 опасность
перегрева
1007.3 1005.2 +24.8
03 22.01 В 5 н/о н/о +30.3 +23.7 68 +41 +41 опасность
перегрева
1006.9 1004.8
05 22.01 СВ 6 н/о {туман} 10/10 600 м
[]
+29.6 +23.3 69 +40 +40 очень
душно
1005.3 1003.2
06 22.01 С 4 н/о н/о +29.2 +24.1 74 +41 +41 опасность
перегрева
1005.7 1003.6
08 22.01 Ю 2 н/о ливневой дождь {туман} 10/10 100 м
[]
+26.0 +24.0 89 +36 +36 очень
душно
1006.6 1004.5
09 22.01 ЮВ 3 н/о н/о +25.8 +24.4 92 +36 +36 очень
душно
1007.5 1005.4
11 22.01 ЮВ 2 н/о в посл. час дождь со снегом {туман} 10/10 300 м
[]
+25.4 +24.0 92 +35 +35 очень
душно
1008.6 1006.5
12 22.01 В 3 н/о н/о +25.3 +23.9 92 +35 +35 очень
душно
1008.8 1006.7
14 22.01 штиль 0 н/о в посл. час дождь со снегом {туман} 10/10 200 м
[]
+25.3 +23.9 92 +35 +35 очень
душно
1008.8 1006.7 +32.7
15 22.01 штиль 0 н/о н/о +25.3 +23.9 92 +35 +35 очень
душно
1008.1 1006.0
17 22.01 ЮВ 2 н/о в посл. час дождь со снегом {туман} 10/0
[]
+25.2 +24.0 93 +35 +35 очень
душно
1007.0 1004.9
18 22.01 В 5 н/о н/о +24.8 +23.2 91 +33 +33 очень
душно
1006.4 1004.3
20 22.01 ЮВ 3 н/о {туман} 9/0
[]
+24.5 +23.1 92 +33 +33 очень
душно
1006.6 1004.5
21 22.01 В 4 н/о н/о +24.8 +23.2 91 +33 +33 очень
душно
1007.3 1005.2
23 22.01 В 6 н/о {туман} 10/0
[]
+26.8 +23.5 82 +36 +38 очень
душно
1007.8 1005.7
00 23.01 В 6 н/о н/о +27.4 +23.6 80 +37 +37 очень
душно
1008.0 1005.9
02 23.01 В 6 н/о в посл. час дождь со снегом {туман} 10/0
[]
+27.7 +24.3 82 +39 +44 очень
душно
1006.7 1004.6 +24.5
03 23.01 В 6 н/о н/о +29.1 +24.2 75 +41 +41 опасность
перегрева
1005.9 1003.8
05 23.01 В 5 н/о сильн. ливневой дождь {туман} 10/0
[]
+25.1 +23.7 92 +34 +38 очень
душно
1005.4 1003.3
06 23.01 В 4 н/о н/о +25.6 +24.0 91 +35 +35 очень
душно
1004.8 1002.7
08 23.01 ЮВ 3 н/о слаб. дождь {туман} 10/10 300 м
[]
+25.8 +24.0 90 +36 +36 очень
душно
1005.1 1003.0
09 23.01 ЮВ 2 н/о н/о +25.5 +24.1 92 +35 +35 очень
душно
1005.4 1003.3
11 23.01 Ю 2 н/о {туман} 10/10 1500 м
[]
+25.4 +24.0 92 +35 +35 очень
душно
1006.3 1004.2
12 23.01 Ю 3 н/о н/о +25.4 +24.0 92 +35 +35 очень
душно
1006.2 1004.1
14 23.01 ЮВ 2 н/о 10/10 300 м
[]
+25.5 +23.9 91 +35 +35 очень
душно
1006.1 1004.0 +29.8
15 23.01 Ю 2 н/о н/о +25.3 +23.9 92 +35 +35 очень
душно
1005.4 1003.3
17 23.01 ЮВ 3 н/о в посл. час дождь {туман} 10/10 300 м
[]
+25.2 +23.8 92 +34 +34 очень
душно
1004.5 1002.4
18 23.01 ЮВ 3 н/о н/о +25.2 +23.8 92 +34 +34 очень
душно
1004.2 1002.1

 

Местоположение метеостанции Аэропорт Вейпа (Квинсленд, Австралия): широта -12.68 долгота 141.91 высота над уровнем моря 19 м.

В архиве по умолчанию представлена погода в Аэропорту Вейпа за последнюю неделю. Архивные данные за месяц целиком и за предыдущие месяцы, начиная с января 2011 года, Вы можете получить, выбрав интересующий диапазон дат из раскрывающегося списка и нажав кнопку "Ввод!".


*Определитесь, кто Вы:
робот инопланетянин человек

Внимание! Время в таблицах - всемирное. Для получения местного времени необходимо прибавить поправку, которая равна 10 ч.

Смотрите также архив погоды в соседних городах и на ближайших метеорологических станциях:

Погода на Базе ВВС Scherger (Квинсленд, Австралия) (21 км)
Погода в Аэропорту Локхарт (Квинсленд, Австралия) (151 км)
Погода в Аэропорту Коэн (Квинсленд, Австралия) (179 км)
Погода на Острове Хорн (Квинсленд, Австралия) (237 км)
Погода в Кованьяме (Квинсленд, Австралия) (312 км)
Погода на Острове Коконат (Квинсленд, Австралия) (319 км)
Погода в Палмервилле (Квинсленд, Австралия) (436 км)
Погода на Мысе Флэттери (Квинсленд, Австралия) (448 км)
Погода в Куктауне (Квинсленд, Австралия) (468 км)
Погода в Мерауке (Индонезия) (497 км)

Пояснения к столбцам:

Ветер - указаны скорость ветра в м/с - средняя за 10 мин, порывы в срок и между сроками (в фигурных скобках) и направление, откуда дует ветер: С - северный, СВ - северо-восточный, В - восточный, ЮВ - юго-восточный, Ю - южный, ЮЗ - юго-западный, З - западный, СЗ - северо-западный.
Видимость - горизонтальная дальность видимости в метрах или километрах. При видимости от 1 до 10 км при отсутствии осадков обычно наблюдается дымка, при ухудшении видимости до 1 км и менее - туман. В сухую погоду видимость может ухудшаться дымом, пылью или мглою.
Явления - указаны атмосферные явления, наблюдавшиеся в срок или в последний час перед сроком; фигурными скобками обозначены явления, наблюдавшиеся между сроками (за 1-3 часа до срока); квадратными скобками обозначены град или гололедные отложения с указанием их диаметра в мм.
Облачность - указаны через наклонную черту общая и нижняя облачность в баллах и высота нижней границы облаков в метрах; квадратными скобками обозначены формы облаков: Ci - перистые, Cs - перисто-слоистые, Cc - перисто-кучевые, Ac - высококучевые, As - высокослоистые, Sc - слоисто-кучевые, Ns - слоисто-дождевые, Cu - кучевые, Cb - кучево-дождевые. Подробнее классификацию облаков см. в Атласе облаков (PDF).
T - Температура воздуха - температура, измеренная на высоте 2 м над землей.
Td - Температура точки росы - температура, при понижении до которой содержащийся в воздухе водяной пар достигнет насыщения.
f - Относительная влажность воздуха - влажноcть воздуха, измеренная на высоте 2 м над землей.
Te - Эффективная температура - температура, которую ощущает одетый по сезону человек в тени. Характеристика душности погоды. При расчете учитывается влияние влажности воздуха и скорости ветра на теплоощущения человека.
Tes - Эффективная температура на солнце - температура, которую ощущает человек, с поправкой на солнечный нагрев. Характеристика знойности погоды. Зависит от высоты солнца над горизонтом, облачности и скорости ветра. Ночью, в пасмурную погоду, а также при ветре 12 м/с и более поправка равна нулю.
P - Атмосферное давление - приведенное к уровню моря атмосферное давление.
Po - Атмосферное давление - измеренное на уровне метеостанции атмосферное давление.
Tmin - Минимальная температура - минимум температуры воздуха на высоте 2 м над землей.
Tmax - Максимальная температура - максимум температуры воздуха на высоте 2 м над землей.
R - Количество осадков - Количество выпавших осадков за период времени, мм. При наведении курсора мыши на число - период времени, за который выпало указанное количество осадков.
R24 - Количество осадков - Количество выпавших осадков за 24 часа, мм.
S - Снежный покров - Высота снежного покрова, см. При наведении курсора мыши на число - состояние снежного покрова и степень покрытия местности в баллах.